Starlink 32276

operational
NORAD ID: 60944 Int'l Des: 2024-155 Owner: SPXS Country: US Constellation: starlink
LEOCIRCULAR

About Starlink 32276

Description loading...

Live Position

Loading 3D Globe...

Upcoming Passes

Altitude History

Altitude vs Time

uPlot chart will show altitude changes over time

Two-Line Element Set

1 60944U 24155W 25305.57865269 .00002329 00000-0 90671-4 0 9996
2 60944 53.1611 4.9262 0001624 111.5462 248.5712 15.30223654 66774
Epoch: Nov 1, 2025 • Age: 11 hours

Current Status

Altitude 480.4 km
Velocity 7.63 km/s
Sub-Earth Point 52.32°N, 47.03°E
Launch Date Aug 31, 2024
Age 1.1 years
Type internet

Technical Details

Classification Payload
Mass 730.00 kg
Dry Mass 700.00 kg
Total Mass 730.00 kg
Length 0.30 m
Diameter 4.10 m
Span 29.00 m
Shape Box + pan
Manufacturer SPXS
Bus Type Starlink V2M
Phase Status In Orbit
Owner/State SPXS/US

Large Constellations

Loading constellations...